Погода Запорожье

Погода Запорожье : погода сейчас, прогноз погоды и архив. Всё, что Вы хотите узнать о погоде Запорожье!

Хотите узнать прогноз погоды в Запорожье? Тогда Вам сюда: Погода в Запорожье

Поиск расширенной информации на нашем сайте:

Другие новости

Новости СМИ2

Главная страница сайта

Новости сайта

03.07.2017

Напоминаем, что на нашем специализированном сайте Метеоцентр.Азия вы можете получить высокодетализированные автоматические прогнозы погоды по пунктам России, СНГ и мира в авиационном формате (включающие направление и скорость ветра, видимость, явления погоды, количество и форму облачности, нижнюю и верхнюю границу облачности).


Погода Запорожье - сегодня

Время (UTC), дата Ветер
(°,м/с) 
Видим.   Явления Облачность Т
(°С)
Тd
(°С)
f(%) Тe
(°С)
Pmin
(гПа)
dP
(гПа)
Po
(мм)
O2
(г/м3)
Тmin Tmax R s Состояние
почвы
15 18.10.17 190 (Ю) 10 км    6/0 верхняя 
[Ci fib]
+14.6 +11.6 82 +18  1020.8  -0.7  756  287           
18 18.10.17 тихо ()   5000 м  дымка  4/0 верхняя 
[Ci fib]
+12 +10.4 90 +14  1020.4  -0.5  755  290    +17.3       
21 18.10.17 170 (Ю) 3700 м  дымка  ясно 
+10.8 +10.2 96 +12  1020.4  -0.1  755  291           
00 19.10.17 180 (Ю) 0200 м  туман  ?/? 60 
+10.3 +10.3 100 +11  1019.8  -0.6  755  291           
03 19.10.17 170 (Ю) <0100 м  туман  ?/? 30 
+10.1 +10.1 100 +11  1018.9  -0.9  754  291           
06 19.10.17 180 (Ю) 0100 м  туман  ?/? 30 
+10.2 +10.2 100 +10  1019.1  0.2  754  291  +9.4        затоплена
водой 
09 19.10.17 200 (Ю) 10 км  дымка{туман}  10/10 120 м 
[St]
+11.3 +10.7 96 +12  1018.8  -0.2  754  290           
12 19.10.17 230 (ЮЗ) 3000 м  дымка  10/10 180 м 
[St]
+12.4 +11.3 93 +15  1018.3  -0.5  754  288          затоплена
водой 
15 19.10.17 190 (Ю) 3000 м  дымка  10/10 180 м 
[St]
+12.4 +11.5 94 +16  1018  -0.2  754  288           
18 19.10.17 090 (В) <0100 м  туман  ?/? 30 
+9.4 +9.4 100 +10  1018.1  -0.1  753  292    +12.6       
21 19.10.17 080 (В) <0100 м  туман  ?/? 30 
+8.7 +8.7 100 +10  1018.1  753  293           
00 20.10.17 130 (ЮВ) <0100 м  туман  ?/? 30 
+9.3 +9.3 100 +9  1017.6  -0.5  753  292          влажная 
03 20.10.17 130 (ЮВ) <0100 м  туман  ?/? 30 
+9.8 +9.8 100 +11  1017.4  -0.2  753  291        597  мокрый или
старый снег
10-40% 
06 20.10.17 190 (Ю) 0200 м  слаб. морось{туман}  ?/? 60 
+10.3 +10.3 100 +12  1018.3  0.9  754  291  +8    0.0     
09 20.10.17 240 (ЮЗ) 1300 м  туман{морось}  10/10 100 м 
[St]
+11.5 +11.5 100 +15  1018.5  0.3  754  289          затоплена
водой 
12 20.10.17 280 (З) 1300 м  в посл. час туман{морось}  10/10 210 м 
[St]
+11.9 +11.6 98 +16  1018.3  -0.2  754  289           
15 20.10.17 тихо ()   1400 м  слаб. дождь  10/10 480 м 
[Sc]
+11.9 +11.4 97 +15  1018.3  754  289          затоплена
водой 
18 20.10.17 тихо ()   0600 м  слаб. дождь{туман}  10/10 200 м 
[Sc]
+11.8 +11.8 100 +15  1018.6  0.3  754  289    +12.1  0.1     
21 20.10.17 тихо ()   0300 м  слаб. морось{туман}  10/10 60 м 
+11.8 +11.8 100 +15  1018.5  -0.1  754  289           
00 21.10.17 350 (С) 1300 м  в посл. час морось{дождь}  10/10 120 м 
[St]
+11 +10.7 98 +14  1018  -0.5  753  290           
03 21.10.17 330 (СЗ) 0200 м  туман  9/9 1110 м 
[Sc]
+10.2 +10.2 100 +12  1017.7  -0.4  753  291          затоплена
водой 
06 21.10.17 310 (СЗ) 1200 м  в посл. час туман  10/10 50 м 
[St]
+11 +10.8 99 +13  1017.8  0.2  753  290  +9.9    0.6     
09 21.10.17 320 (СЗ) 10 км    9/9 600 м 
[Sc]
+12.7 +11.9 95 +17  1017  -0.7  753  288           
12 21.10.17 320 (СЗ) 10 км    8/8 600 м 
[Sc]
+14 +11 82 +16  1015.5  1.4  752  286          влажная 
15 21.10.17 340 (С) 5000 м  дымка  9/9 700 м 
[Sc]
+11.3 +9.7 90 +12  1015.3  -0.4  751  289           
Время (UTC), дата Ветер
(°,м/с) 
Видим.   Явления Облачность Т
(°С)
Тd
(°С)
f(%) Тe
(°С)
Pmin
(гПа)
dP
(гПа)
Po
(мм)
O2
(г/м3)
Тmin Tmax R s Состояние
почвы

Для получения пояснительной информации подведите курсор к названию столбца.

ПОГОДА Запорожье - архив

Всё, что Вы хотите узнать о погоде Запорожье - удобно и подробно!

Выберите нужную дату (начиная с 1 января 2015* года) и нажмите кнопку "Найти".
Будут отображены архивные сводки погоды по пункту Запорожье, начиная с указанной даты.


Отображать данные в формате CSV (для использования в таблицах Excel)


Внимание! Наш архив погоды предназначен исключительно для личного некоммерческого использования в познавательных целях. Если Вам необходимы официальные справки о состоянии погоды (для производственных, юридических, коммерческих и т.п. целей), обращайтесь в органы Росгидромета.

*Примечание: данная дата относится к архиву по метеостанциям СССР (Россия, СНГ, Балтия).
Архив по метеостанциям Зарубежной Европы и Азии (кроме Китая) хранится 10 дней, по другим регионам земного шара (Китай, Африка, Америка, Австралия, Океания) - 1 день.

Запорожье - район местоположения метеостанции


Название, широта, долгота, высота метеостанции:
Запорожье 47.8°ш. 35°д. 112 м над ур. моря [Украина]

Дополнительная информация

В oтличие oт бoльшинства пoгoдных сайтoв мы публикуем пoдрoбную метеoинфoрмацию в детальнoм прoфессиoнальнoм фoрмате.

Характеристики температуры и влажнoсти вoздуха измеряются на высoте 2 м в тени вдали oт зданий и деревьев.
Скoрoсть ветра измеряется на высoте 10 м (на урoвне рoста челoвека скoрoсть ветра ниже в 1.5-2 раза). Если метеoстанция нахoдится в гoрoде или в лесу, тo скoрoсть ветра занижена на 2-4 м/с пo сравнению с oткрытым местoм. Скoрoсть ветра над акватoриями крупных рек и oзёр, а также на вершинах хoлмoв на 2-5 м/с выше, чем в oбычных услoвиях.
Атмoсфернoе давление в разных тoчках местнoсти мoжет значительнo oтличаться oт давления на метеoстанции, в зависимoсти oт услoвий рельефа (при пoдъёме на 10 м давление пoнижается примернo на 1 мм рт.ст.).